Tracking 19164 objects as of 21-May-2018
HD Live streaming from Space Station
objects crossing your sky now

GLOBALSTAR M048

Track GLOBALSTAR M048 now!
10-day predictions
GLOBALSTAR M048 is classified as:


NORAD ID: 25872
Int'l Code: 1999-041A
Perigee: 1,987.2 km
Apogee: 2,010.1 km
Inclination: 51.9 °
Period: 127.0 minutes
Semi major axis: 8369 km
RCS: 2.5743 m2 (large)
Launch date: July 25, 1999
Source: Globalstar (GLOB)
Launch site: AIR FORCE EASTERN TEST RANGE (AFETR)
aabbcc
Your satellite tracking list
Your tracking list is empty




NASA's NSSDC Master Catalog

Two Line Element Set (TLE):
1 25872U 99041A   18140.91611073 -.00000065 +00000-0 +12801-3 0  9996
2 25872 051.9387 349.9485 0013713 032.9251 070.5119 11.33813355832074
Source of the keplerian elements: AFSPC